GFSMW_925_thetae_108.txt.gz
Theta_e
319 319 319 318 319 319 319 319 321 322 322 315 324 331 336 336 335 338 338 337 337 336 336 337 337 335 335 335 335 335 335 333 333 331 330 330 331 331 331 330 327 328 327
319 318 317 316 316 316 316 316 317 318 320 321 318 327 331 333 333 335 337 337 336 335 336 336 336 335 335 334 335 334 332 332 332 330 329 330 329 330 330 329 328 328 328
317 316 314 313 313 313 313 313 314 314 316 319 321 322 329 332 333 334 335 335 336 334 334 335 336 335 336 334 333 333 332 331 330 331 329 328 330 327 328 329 329 330 329
314 313 312 311 310 310 310 310 311 311 312 315 319 323 326 332 332 333 333 334 335 336 335 335 336 336 335 334 333 332 334 332 330 330 330 327 327 330 331 328 329 330 329
312 311 310 308 308 308 308 308 308 308 310 310 313 317 323 329 332 332 333 334 334 334 336 335 335 335 334 333 333 332 334 333 332 330 328 329 325 324 328 331 328 327 328
311 310 308 306 306 305 305 305 304 305 306 307 309 312 317 324 332 332 334 334 335 334 335 334 335 334 333 333 332 334 334 332 332 332 331 329 327 326 325 328 328 329 327
310 308 306 305 304 303 302 301 300 300 302 302 305 309 312 320 327 334 335 335 336 334 334 334 334 333 333 334 335 334 333 332 331 331 331 330 330 328 327 327 328 329 327
308 306 304 303 302 301 300 298 296 297 298 299 302 305 308 313 326 332 333 335 335 334 333 333 334 334 334 334 334 334 333 332 331 331 330 328 328 326 326 324 325 325 325
306 304 303 301 299 298 297 294 294 294 295 297 299 302 306 312 326 332 333 334 335 334 332 332 333 332 333 333 332 333 331 330 330 329 328 327 326 326 326 325 324 324 326
304 303 302 299 297 296 295 292 292 293 294 296 298 302 305 314 330 333 333 333 334 334 332 332 332 331 331 331 332 331 330 329 330 328 328 326 326 325 325 326 326 325 324
303 301 300 298 296 295 293 292 291 291 292 295 298 301 310 329 331 332 333 332 333 332 332 331 330 330 330 330 330 328 329 329 329 328 327 326 326 325 325 326 326 325 325
301 300 298 296 294 293 292 290 289 290 291 294 297 300 306 319 329 331 331 331 332 331 330 330 329 329 328 329 328 328 328 328 328 326 325 326 325 325 325 325 325 325 324
299 298 297 295 292 290 289 288 288 289 290 293 296 298 300 302 314 325 327 328 328 328 328 328 328 328 328 328 327 327 326 326 326 326 325 325 325 325 325 324 324 323 323
297 296 295 294 291 289 288 287 287 288 289 291 293 295 295 297 301 311 320 324 325 325 326 326 326 326 325 325 325 324 323 322 323 322 321 320 320 319 319 319 322 322 322
294 293 293 293 290 289 287 286 286 287 287 289 290 291 293 293 301 299 308 318 321 322 323 323 324 322 322 323 323 323 322 320 318 318 316 315 314 314 312 313 316 321 321
292 292 291 291 289 288 287 286 286 285 286 287 288 290 291 291 292 292 293 297 302 303 312 309 312 314 314 318 320 321 318 316 314 311 308 306 306 304 305 307 312 316 319
291 290 290 289 288 287 287 286 285 285 285 285 286 287 288 290 290 291 290 290 291 292 294 293 295 297 302 311 315 316 313 308 304 301 299 298 299 298 300 302 302 306 307
289 289 288 287 287 286 286 286 286 285 285 285 285 285 286 287 288 289 289 288 287 288 290 290 292 292 292 299 305 308 303 297 294 293 294 294 295 296 296 298 298 298 299
287 287 286 287 286 285 285 285 285 285 285 285 285 285 285 286 286 286 286 286 287 285 284 285 287 289 290 293 294 299 294 290 288 288 289 289 289 290 291 292 291 288 288
286 286 285 285 285 284 285 284 284 284 284 284 285 285 285 286 286 286 285 284 284 283 283 283 283 284 285 288 291 292 288 286 284 284 284 284 285 287 290 289 288 284 284
286 286 285 284 284 283 284 284 283 283 283 284 284 285 285 286 286 286 286 285 285 284 283 282 282 282 282 283 283 285 285 284 283 282 282 282 282 282 283 285 284 282 283
286 286 286 284 284 283 283 283 283 283 283 284 283 284 284 285 285 286 286 286 286 285 285 284 283 282 281 281 281 281 282 281 280 280 280 280 281 281 281 281 281 282 282
285 285 285 284 284 283 283 283 282 283 283 283 283 283 283 284 284 284 285 285 285 286 285 284 284 283 283 282 281 281 281 280 280 279 279 281 282 282 282 282 282 282 281
284 284 283 283 283 283 283 283 282 282 283 283 283 283 282 282 282 283 282 282 284 284 283 284 283 282 282 281 282 282 282 281 281 280 280 280 280 280 279 280 280 280 280
283 283 283 282 282 282 282 282 282 282 282 282 282 283 282 282 281 279 280 280 280 280 282 281 280 281 280 279 279 280 280 280 280 281 282 282 281 280 280 280 280 281 281
282 282 282 282 281 280 280 280 280 280 281 282 281 281 281 281 281 281 279 277 277 278 278 278 279 278 278 278 277 277 277 277 279 280 280 280 279 279 279 278 278 278 279

GFSMW_925_thetae_111.txt.gz
Theta_e
318 320 320 321 321 321 321 321 321 322 323 324 323 320 330 333 336 338 339 342 341 340 340 340 339 339 339 339 339 339 337 337 337 338 336 335 334 333 332 332 332 331 329
320 320 319 318 318 318 318 317 318 319 320 321 323 324 322 327 330 334 336 339 341 340 340 339 338 339 337 338 337 337 337 337 337 335 334 335 333 332 333 332 331 331 330
319 318 317 316 315 315 315 314 315 315 316 317 319 322 324 323 328 333 333 335 339 341 340 338 339 338 337 337 337 336 335 335 336 334 332 332 333 330 331 332 331 331 330
317 316 316 315 314 313 313 312 313 313 313 314 316 318 321 325 323 330 331 333 336 339 339 339 337 339 337 337 336 335 336 335 332 334 333 332 331 332 332 331 331 331 330
316 315 314 312 311 311 310 310 310 310 310 310 312 314 316 319 324 326 332 333 334 337 337 337 337 338 337 337 336 335 335 334 333 333 332 333 331 330 331 332 331 330 331
315 314 311 310 310 309 308 308 307 306 306 306 307 308 310 312 317 322 328 335 334 336 336 336 335 336 338 336 337 336 334 334 334 333 331 331 331 329 330 331 329 330 329
313 313 311 310 308 307 306 305 304 303 303 303 303 304 305 308 311 316 323 329 334 336 336 334 336 336 337 336 336 336 334 334 335 334 332 331 331 329 329 330 330 329 329
311 310 309 307 306 304 304 303 301 300 299 300 300 300 300 303 307 312 318 326 333 334 336 334 335 335 336 336 336 335 334 333 335 334 333 332 331 332 331 330 329 330 329
309 309 307 306 304 303 302 300 298 297 297 296 296 296 298 301 304 308 314 321 330 333 337 334 334 335 335 336 336 335 336 335 334 334 333 332 332 330 330 329 327 328 328
308 307 306 304 302 301 300 298 296 295 294 294 293 294 297 300 303 306 310 320 331 333 336 336 334 334 335 335 335 336 336 335 334 333 332 331 330 329 329 329 328 327 327
306 306 304 302 300 298 297 295 293 293 292 291 291 294 297 300 304 312 316 324 332 332 334 335 334 333 334 334 334 334 334 333 332 331 331 330 330 329 328 328 327 328 327
305 304 303 300 298 296 294 293 291 290 289 289 291 293 296 298 303 310 326 328 329 331 332 334 333 332 333 332 332 333 333 331 331 330 330 330 329 329 328 327 327 327 327
303 302 301 299 296 294 293 291 290 288 288 289 290 291 294 295 297 303 317 323 328 330 330 332 333 332 331 330 332 333 331 330 330 330 329 328 328 327 327 327 326 327 326
300 299 299 297 295 293 291 290 288 287 287 288 289 289 291 292 294 296 299 313 321 327 330 331 331 330 330 329 330 330 330 328 327 328 327 326 325 324 323 321 323 324 324
298 297 296 295 293 291 290 290 288 286 286 287 288 288 290 291 292 292 294 299 308 310 317 324 327 328 328 329 329 329 328 326 325 324 321 319 318 317 317 315 314 315 319
295 294 293 292 290 289 289 289 288 287 286 286 287 287 288 289 290 291 291 291 293 296 299 302 307 311 321 325 325 324 322 321 318 313 311 309 308 308 308 307 305 305 306
292 291 291 290 289 288 288 288 287 287 287 287 287 287 287 287 287 288 289 289 287 289 289 292 294 294 295 312 323 321 314 308 306 302 299 298 298 298 298 299 299 298 300
290 289 288 288 287 287 287 287 287 287 287 287 287 287 287 287 286 285 286 286 286 286 286 286 289 293 291 292 294 309 302 299 296 295 294 294 293 295 296 294 294 293 292
288 287 287 287 286 286 286 286 286 286 286 287 287 287 287 287 287 286 285 284 284 284 283 284 285 286 289 291 292 290 288 287 287 287 288 289 290 290 290 291 289 288 287
287 286 286 285 285 285 286 286 285 286 286 286 286 286 287 287 287 287 287 286 285 283 283 282 282 283 284 287 290 291 287 286 284 284 284 285 286 289 289 288 286 283 283
288 288 286 285 285 285 284 285 285 285 285 285 285 286 286 286 287 287 287 287 286 286 285 284 283 282 282 282 283 285 283 283 283 283 283 283 283 284 286 287 284 282 283
288 287 287 286 285 285 284 284 284 285 285 285 284 284 284 285 285 286 286 286 286 286 285 285 284 283 283 282 281 281 281 281 280 281 281 281 282 282 282 282 282 283 283
286 286 286 285 285 285 285 284 283 284 285 285 285 283 282 283 284 283 283 284 284 284 284 284 283 282 282 282 283 283 282 282 281 281 281 282 282 282 283 283 283 283 282
286 286 285 285 284 284 284 284 284 284 284 284 285 285 284 281 280 282 281 281 281 283 282 281 282 281 280 280 281 282 282 283 283 283 283 283 282 282 282 282 282 282 282
285 285 284 284 283 283 283 283 283 284 284 284 284 284 284 284 282 279 278 279 278 279 279 281 279 279 279 278 279 279 280 281 282 283 282 282 283 282 282 282 281 282 282
284 284 283 283 282 282 281 281 282 282 283 283 283 283 283 283 283 283 282 277 277 277 277 277 278 278 277 277 278 278 279 280 281 281 281 280 280 280 280 280 280 279 280

GFSMW_925_thetae_114.txt.gz
Theta_e
320 321 321 321 321 321 320 320 320 321 321 322 323 325 325 322 334 339 341 341 342 343 342 343 344 342 340 339 340 341 340 340 339 338 336 335 335 334 334 333 333 332 332
321 321 319 318 318 317 316 316 316 316 317 318 319 320 321 324 325 324 330 338 341 342 342 343 343 343 340 338 339 341 340 339 338 338 335 334 334 334 333 332 332 331 331
321 319 317 317 316 315 314 314 314 314 314 314 315 317 319 321 325 325 324 334 338 341 341 342 342 342 340 338 337 340 339 337 336 337 332 331 331 330 332 334 331 332 331
318 317 316 315 313 313 312 312 312 311 311 310 311 313 315 317 319 321 323 326 331 332 339 338 341 341 340 338 336 337 338 336 335 336 334 331 331 329 331 332 332 331 331
317 316 314 312 312 311 310 309 309 309 308 307 308 308 310 311 312 313 316 319 324 328 334 338 340 340 340 339 336 335 337 335 334 334 334 333 332 332 330 330 330 332 332
316 314 312 311 310 308 307 307 306 306 305 304 304 304 306 306 307 309 312 315 319 325 333 337 337 339 338 338 337 336 336 335 335 333 333 333 332 331 329 328 328 329 330
312 311 310 309 308 307 306 305 304 302 301 301 301 301 301 302 303 305 308 311 314 319 327 334 334 337 337 336 337 338 336 335 334 334 332 332 332 331 329 330 328 327 330
310 309 308 307 306 305 303 302 300 299 298 298 297 297 298 299 300 301 303 307 311 316 320 331 333 335 335 334 334 335 337 336 335 334 333 332 330 331 329 328 329 328 327
308 307 306 305 304 303 301 299 298 296 295 295 294 294 295 296 297 298 300 303 306 310 315 321 331 335 336 334 334 336 336 336 335 335 334 333 332 331 330 330 330 329 327
306 306 305 304 302 300 298 296 295 294 292 292 292 292 294 294 296 299 300 303 304 307 313 318 329 335 335 335 335 335 334 334 335 333 329 332 331 328 331 331 329 328 327
305 304 304 302 300 298 296 294 293 292 290 289 289 290 292 293 295 297 299 302 307 309 311 318 327 333 334 335 335 335 334 334 334 334 332 331 322 327 330 329 328 328 327
303 303 302 300 298 296 294 293 291 289 288 288 289 290 290 291 294 295 297 300 306 319 316 321 329 332 333 333 334 334 334 334 333 333 333 331 329 330 329 329 329 328 328
301 300 300 298 296 294 292 291 291 289 287 287 288 289 289 290 291 293 295 296 303 314 322 329 330 331 332 331 334 334 334 335 334 333 332 331 330 330 329 328 328 328 328
300 298 297 295 293 291 291 290 290 288 287 287 288 288 288 288 289 292 292 295 295 301 312 322 327 329 331 332 332 333 333 333 332 331 330 330 329 329 328 326 325 325 325
297 295 294 292 291 290 289 289 288 288 288 288 288 288 288 288 288 289 290 291 292 293 295 304 308 316 322 323 331 331 332 332 328 328 327 324 324 324 324 322 318 318 316
294 293 292 290 289 289 288 288 288 288 288 288 288 288 287 287 286 286 287 288 289 288 290 293 293 295 297 312 329 330 330 322 323 317 311 309 313 313 314 313 316 314 310
291 290 290 289 288 288 287 287 287 287 287 288 288 288 288 287 286 285 285 285 285 287 286 287 289 290 291 296 310 311 311 308 305 305 304 303 303 307 306 304 306 302 300
289 288 288 287 287 287 287 286 287 287 287 287 287 287 288 288 287 286 285 284 284 284 284 285 286 287 289 291 291 291 294 293 293 295 294 297 297 299 302 301 297 294 293
287 287 286 286 286 286 286 286 286 286 286 286 286 286 287 287 287 287 287 286 285 284 284 283 283 284 285 291 293 290 286 287 286 287 289 290 291 291 294 296 290 288 287
287 286 285 285 285 285 285 286 286 286 285 285 285 285 285 286 286 286 287 286 286 285 284 284 284 283 283 284 287 289 287 284 284 284 285 285 286 287 288 289 289 284 283
288 287 286 286 285 285 284 285 285 285 285 284 283 283 284 284 284 285 285 285 285 284 284 283 283 283 284 283 283 283 282 283 283 283 284 284 284 284 283 284 284 283 283
288 287 286 286 285 285 285 284 285 285 285 286 284 281 281 283 281 282 282 284 282 283 282 282 282 281 282 283 283 283 283 282 282 283 283 283 283 283 283 283 282 282 282
286 286 286 285 285 284 285 286 285 285 285 286 286 284 282 280 281 280 280 280 282 281 281 281 280 280 280 281 283 283 284 284 283 283 283 283 283 283 283 283 284 284 283
286 285 285 284 284 284 283 284 285 285 284 285 285 284 285 282 280 279 278 278 278 279 280 278 279 278 279 279 280 281 282 283 283 283 283 283 283 282 282 282 283 283 283
285 285 284 283 283 282 282 283 283 284 284 284 284 284 284 284 281 279 278 277 277 277 277 278 278 278 278 279 280 281 281 282 281 281 280 280 280 280 280 280 280 281 281
284 284 283 282 281 281 281 281 282 282 283 283 283 283 283 283 283 283 280 279 279 278 277 277 277 277 279 280 280 280 280 281 280 280 280 279 279 279 279 279 278 279 280

GFSMW_925_thetae_117.txt.gz
Theta_e
319 320 318 317 317 316 316 315 315 315 315 315 316 316 317 320 322 323 326 335 338 340 341 342 342 342 341 340 342 342 340 340 338 339 338 338 336 335 334 334 334 334 334
319 317 316 316 315 314 314 313 312 312 312 312 312 313 314 317 318 321 324 325 326 328 338 340 341 340 341 339 339 341 340 340 340 337 335 333 333 335 335 334 334 332 333
317 316 314 313 312 311 311 310 310 310 309 308 308 309 311 313 314 316 317 320 322 324 329 337 337 339 339 339 337 338 340 339 339 338 333 329 328 327 334 334 333 332 332
314 312 310 309 309 308 308 308 307 306 305 305 304 304 306 308 308 309 310 313 316 318 321 324 334 337 337 336 335 335 336 338 337 336 335 330 329 325 327 331 333 333 331
311 309 308 308 307 306 306 305 304 303 302 301 301 301 302 303 304 305 306 308 311 313 314 317 323 333 336 336 335 334 336 336 336 335 335 332 329 329 325 327 329 332 331
309 307 307 306 305 304 303 303 301 300 299 298 298 298 298 299 300 301 302 303 306 309 311 313 316 322 335 335 336 335 335 336 336 334 333 333 332 330 327 324 325 329 331
307 306 305 303 303 301 300 299 297 296 296 295 296 295 296 296 297 298 300 301 302 304 308 310 313 318 327 334 335 334 335 335 335 333 333 332 332 331 330 328 324 324 329
305 304 302 301 300 298 297 296 295 294 293 292 292 293 293 294 295 296 297 299 300 302 303 305 309 313 319 330 333 333 332 335 335 334 333 332 331 331 330 329 326 324 323
305 303 301 300 298 297 295 294 293 292 291 290 290 290 291 292 293 294 295 296 298 300 302 304 306 310 314 321 332 332 331 334 336 335 333 332 331 331 331 329 328 327 325
302 302 300 298 296 295 293 292 292 290 289 288 289 289 290 291 292 293 294 296 298 299 301 303 305 307 312 318 330 330 330 332 334 334 334 332 331 330 330 329 328 328 325
300 299 298 297 294 293 292 291 290 290 288 288 288 289 290 290 291 292 293 295 296 298 300 303 307 308 310 316 329 330 329 331 332 333 333 332 331 330 330 329 327 328 329
298 297 296 294 292 291 291 290 289 289 288 288 288 289 289 289 290 290 291 293 294 295 299 304 308 312 311 316 327 333 331 331 331 332 332 330 331 330 329 326 322 323 327
297 295 293 292 291 290 289 289 288 288 288 288 288 288 288 288 288 289 290 290 291 293 296 301 307 314 314 317 325 331 331 333 331 332 331 331 329 326 325 324 327 325 327
295 294 292 291 290 289 288 288 287 287 287 288 288 288 288 287 287 287 287 288 289 290 292 295 298 311 317 324 328 329 328 329 331 331 331 331 329 325 324 326 327 327 327
293 292 291 289 288 288 287 287 287 287 287 287 288 288 288 287 286 285 285 285 287 288 290 291 292 298 305 311 321 325 327 328 331 328 329 330 328 327 327 327 327 327 325
292 290 289 288 287 287 287 287 287 286 287 287 287 287 287 287 287 286 285 285 285 286 288 288 289 290 291 301 319 323 327 326 323 318 316 317 322 324 325 327 324 322 320
289 288 287 287 287 287 286 286 286 286 286 286 286 286 287 287 287 286 285 285 285 285 285 286 286 288 290 289 296 306 298 297 298 299 299 301 304 314 314 312 313 314 314
287 286 286 286 286 286 286 286 286 285 285 285 285 285 285 286 286 286 286 285 284 284 285 285 285 285 286 289 288 288 288 290 290 291 292 293 295 294 299 301 301 298 299
285 285 285 285 285 285 285 285 285 284 283 283 283 284 283 283 284 284 285 284 284 283 283 283 284 285 285 285 287 288 286 286 286 286 288 288 289 289 290 291 287 285 284
285 285 285 285 285 284 285 285 285 285 284 281 281 282 282 281 282 283 282 283 283 282 282 282 282 283 284 285 284 284 286 285 285 285 285 285 285 287 289 287 284 282 282
287 286 285 285 285 285 284 285 285 285 285 284 282 280 280 279 279 280 281 280 281 281 281 281 281 281 282 284 284 284 284 284 284 284 285 285 284 286 285 284 283 282 282
287 286 285 285 284 284 285 285 284 285 285 285 284 282 280 279 278 278 278 279 279 279 279 279 279 280 281 282 283 284 284 284 284 284 284 284 284 284 284 284 283 283 283
286 285 285 284 283 283 283 283 285 284 284 284 283 283 281 280 279 277 277 277 278 278 278 278 279 279 280 281 282 282 283 282 282 282 282 282 282 282 283 283 283 283 283
285 284 283 283 282 282 282 282 283 283 283 283 283 283 282 281 279 278 278 277 277 277 277 278 279 280 280 280 281 281 281 280 280 280 280 280 280 281 281 281 282 282 282
284 283 282 281 281 281 281 282 282 283 282 282 282 282 282 282 280 279 278 278 278 278 278 277 278 279 280 280 280 280 280 279 279 278 278 278 278 278 278 279 279 280 280
283 281 281 280 280 280 280 280 281 282 282 282 282 282 282 281 281 281 280 280 278 277 278 279 278 278 279 280 279 279 278 278 277 277 277 276 276 276 277 277 277 278 279

GFSMW_925_thetae_123.txt.gz
Theta_e
312 309 308 308 307 307 307 307 307 306 308 309 309 309 309 309 309 310 310 310 312 315 316 325 327 327 328 328 334 336 338 338 337 336 335 335 335 336 337 337 336 336 335
310 308 305 304 303 302 302 301 301 301 301 302 302 304 304 306 306 307 306 307 307 307 308 311 313 319 327 327 328 335 336 336 336 335 331 333 333 335 335 336 336 335 335
308 305 303 301 300 299 298 298 297 297 296 298 299 301 303 303 303 303 302 302 303 304 305 306 308 310 312 316 325 334 334 334 334 334 331 329 332 327 333 335 335 335 335
304 302 301 300 298 297 296 295 295 294 294 295 295 296 296 296 298 298 299 300 301 302 302 304 305 306 308 311 314 320 333 331 328 331 331 328 327 327 326 329 332 333 334
303 301 300 298 296 294 294 294 293 293 292 292 293 293 293 294 295 296 297 298 300 299 300 301 302 303 304 307 311 315 319 332 328 330 330 328 327 326 324 327 327 330 331
302 300 299 298 296 294 293 292 292 291 290 291 291 291 291 292 292 293 294 295 296 297 298 298 298 299 301 303 306 311 317 326 332 332 330 328 327 326 325 325 323 328 330
302 299 298 296 295 293 292 291 290 290 289 289 289 289 289 290 290 291 292 293 294 296 296 296 297 298 300 301 302 304 307 311 325 330 329 327 327 327 326 326 326 325 326
302 299 297 295 293 292 291 289 289 289 289 288 289 289 289 289 290 291 291 292 293 294 295 296 297 298 299 300 301 303 306 309 313 328 329 328 328 328 327 326 326 324 322
301 298 296 294 292 291 290 289 288 288 288 288 288 288 288 289 290 290 291 291 292 293 294 294 295 296 298 299 300 301 303 307 311 316 329 328 328 328 328 328 328 327 328
299 296 293 292 290 289 288 288 287 288 288 288 288 288 288 288 288 289 289 290 290 290 291 292 293 294 295 297 299 302 303 304 309 314 322 329 330 329 329 329 328 328 328
295 293 291 290 289 288 287 287 287 287 287 287 288 288 288 288 287 287 287 288 288 288 290 291 292 292 294 296 299 301 303 304 308 312 317 326 330 329 330 329 329 328 328
291 290 289 288 289 287 287 287 287 287 287 286 287 287 287 287 287 287 286 286 287 287 288 289 290 291 293 294 297 300 304 307 309 311 313 321 328 329 330 329 328 329 327
290 289 289 288 288 287 287 287 286 286 286 286 286 286 286 286 286 286 285 285 285 286 287 288 288 289 290 291 293 296 299 303 308 311 314 318 325 328 328 328 328 328 327
291 290 289 288 287 287 287 286 286 285 285 285 284 284 284 285 284 284 284 284 284 284 285 286 287 287 288 289 290 292 296 301 312 312 314 317 323 328 328 328 328 328 327
290 289 288 287 286 286 286 285 285 284 284 283 283 283 283 283 283 283 283 283 283 283 283 284 286 287 287 288 289 296 300 302 312 313 314 315 319 326 327 328 328 327 325
289 288 287 286 286 285 284 283 282 282 282 282 282 282 283 282 282 282 282 282 282 282 282 283 285 286 286 287 288 291 294 297 299 299 302 309 314 317 324 326 327 326 324
288 286 286 285 285 285 284 284 282 280 280 280 280 280 282 281 280 281 281 280 281 281 282 282 284 285 285 286 287 287 288 289 290 290 291 293 297 300 302 310 313 319 320
286 285 284 284 284 285 285 285 283 281 280 279 279 278 278 279 280 280 279 279 280 280 281 281 282 283 284 285 285 286 286 286 287 287 287 288 290 293 294 293 296 293 296
284 284 285 285 285 284 284 284 284 282 280 279 279 278 278 278 278 278 278 278 279 280 280 280 281 282 283 283 284 284 284 285 285 285 286 286 286 288 293 292 286 286 286
284 284 284 284 284 284 284 283 283 282 281 279 278 278 278 278 278 278 277 278 279 279 280 280 280 280 281 283 282 282 283 283 283 283 284 284 285 286 287 288 286 285 284
285 284 283 283 283 283 283 283 282 282 282 280 279 278 278 278 278 278 278 278 278 278 279 280 279 279 280 280 281 281 280 281 281 281 282 283 283 283 284 284 283 283 284
285 284 283 283 283 283 282 282 282 282 282 281 279 279 278 277 277 278 278 279 278 278 278 279 279 279 278 279 279 279 279 279 279 280 280 281 281 281 282 282 283 283 283
284 283 283 282 281 282 282 282 282 282 281 281 281 280 279 278 277 277 278 278 278 277 277 278 278 279 278 278 278 278 277 277 277 277 278 278 278 279 279 280 281 281 281
283 282 282 281 281 281 281 281 281 281 281 281 280 280 280 278 277 277 277 278 278 278 276 276 277 277 278 278 277 276 276 276 276 276 276 276 276 277 277 278 278 278 279
282 281 281 280 280 280 280 281 281 281 280 280 279 279 279 278 277 276 277 277 278 278 277 276 275 276 276 277 277 277 276 275 274 274 274 274 274 274 274 275 275 276 276
281 280 280 279 279 279 280 280 280 280 279 279 278 278 277 277 277 276 275 276 276 276 276 276 275 274 275 275 275 275 275 274 274 273 273 273 273 273 273 273 273 273 274